This demonstration page uses our WeatherBlox Daily Observations layout. Learn more.

Left ArrowRight Arrow

Hourly Observations for May 22, 2017

Temp ( °F °C ) Dew Point ( °F °C ) Humidity (%) Winds ( mph kmh ) Pressure ( in mb ) Visibility ( mi km ) Precip ( " mm )
12:54 am 00:54 Clear 53 11.7 46 7.8 77 77 SSE 3 6 30.07 1018 10 16.0934 0 0
1:54 am 01:54 Clear 50 10 45 7.2 83 83 SSE 6 9 30.05 1018 10 16.0934 0 0
2:54 am 02:54 Clear 50 10 45 7.2 83 83 S 5 7 30.03 1017 10 16.0934 0 0
3:54 am 03:54 Clear 53 11.7 46 7.8 77 77 SSW 6 9 30.01 1016 10 16.0934 0 0
4:54 am 04:54 Partly Cloudy 57 13.9 50 10 78 78 SW 12 19 30 1016 10 16.0934 0 0
5:54 am 05:54 Cloudy 58 14.4 51 10.6 78 78 WSW 10 17 29.98 1015 10 16.0934 0 0
6:54 am 06:54 Sunny 57 13.9 50 10 78 78 SW 10 17 29.98 1015 10 16.0934 0 0
7:54 am 07:54 Sunny 58 14.4 50 10 75 75 WSW 6 9 29.98 1015 10 16.0934 0 0
8:54 am 08:54 Sunny 59 15 50 10 72 72 WNW 6 9 29.97 1015 10 16.0934 0 0
9:54 am 09:54 Sunny 61 16.1 50 10 67 67 WSW 9 15 29.98 1015 10 16.0934 0 0
10:54 am 10:54 Sunny 66 18.9 50 10 56 56 SW 7 11 29.95 1014 10 16.0934 0 0
11:54 am 11:54 Sunny 70 21.1 49 9.4 47 47 W 10 17 29.95 1014 10 16.0934 0 0
12:54 pm 12:54 Mostly Sunny 71 21.7 46 7.8 41 41 WSW 8 13 29.93 1014 10 16.0934 0 0
1:54 pm 13:54 Mostly Sunny 71 21.7 53 11.7 53 53 SSW 18 30 29.91 1013 10 16.0934 0 0
2:54 pm 14:54 Sunny 71 21.7 51 10.6 49 49 SW 18 30 29.9 1013 10 16.0934 0 0
3:54 pm 15:54 Mostly Sunny 71 21.7 52 11.1 51 51 SSW 18 30 29.88 1012 10 16.0934 0 0
4:47 pm 16:47 Partly Cloudy with Nearby Thunderstorms 72 22.2 50 10 46 46 SSW 18 30 29.77 1008 10 16.0934 0 0
4:54 pm 16:54 Mostly Cloudy with Nearby Thunderstorms 71 21.7 50 10 47 47 SSW 17 28 29.83 1010 10 16.0934 0 0
5:08 pm 17:08 Mostly Cloudy with Light Thunderstorms 70 21.1 49 9.4 47 47 NNW 14 22 29.85 1011 10 16.0934 0 0.0254
5:16 pm 17:16 Cloudy with Heavy Thunderstorms 60 15.6 54 12.2 80 80 NNW 15 24 29.85 1011 2.5 4.02335 0.02 0.508
5:37 pm 17:37 Cloudy with Light Rain 59 15 55 12.8 87 87 NNE 9 15 29.88 1012 4 6.43736 0.12 3.048
5:54 pm 17:54 Partly Cloudy 59 15 56 13.3 90 90 NE 3 6 29.88 1012 10 16.0934 0.12 3.048
6:13 pm 18:13 Mostly Cloudy with Nearby Thunderstorms 60 15.6 55 12.8 84 84 Calm 29.85 1011 10 16.0934 0 0
6:34 pm 18:34 Cloudy with Thunderstorms 60 15.6 57 13.9 90 90 SSW 7 11 29.91 1013 4 6.43736 0 0.0254
6:51 pm 18:51 Cloudy with Nearby Thunderstorms 61 16 57 14 88 88 SSW 10 17 29.88 1012 10 16.0934 0.05 1.27
6:54 pm 18:54 Cloudy with Nearby Thunderstorms 61 16.1 56 13.3 84 84 SSW 13 20 29.89 1012 10 16.0934 0.05 1.27
7:01 pm 19:01 Cloudy with Thunderstorms 61 16.1 55 12.8 81 81 SSW 9 15 29.88 1012 10 16.0934 0 0
7:12 pm 19:12 Cloudy 60 15.6 54 12.2 80 80 SW 7 11 29.91 1013 10 16.0934 0 0
7:54 pm 19:54 Mostly Cloudy 61 16.1 55 12.8 81 81 S 6 9 29.89 1012 10 16.0934 0 0
8:54 pm 20:54 Clear 58 14.4 55 12.8 90 90 Calm 29.89 1012 10 16.0934 0 0
9:54 pm 21:54 Clear 56 13.3 54 12.2 93 93 WNW 3 6 29.91 1013 10 16.0934 0 0
10:54 pm 22:54 Partly Cloudy 56 13.3 53 11.7 90 90 Calm 29.92 1013 10 16.0934 0 0
11:54 pm 23:54 Mostly Clear 54 12.2 48 8.9 80 80 N 10 17 29.93 1014 10 16.0934 0 0

Powered by AerisWeather